This is the latest recevied weather packets stored in our database for station/object KC9TVS-13. If no packets are shown the sender has not sent any weather packets the latest 10 day(s).
| Time | Temp. | Humidity | Pressure | Rain* | Wind** | Luminosity | Snow |
|---|---|---|---|---|---|---|---|
| 1787771376 | 32.78° C | 73% | 1015.2 hPa | 0 mm | - | 856 W/m² | - |
| 1787771078 | 32.22° C | 71% | 1015.2 hPa | 0 mm | - | 710 W/m² | - |
| 1787770776 | 32.78° C | 74% | 1015.2 hPa | 0 mm | - | 851 W/m² | - |
| 1787770477 | 31.67° C | 71% | 1015.2 hPa | 0 mm | - | 853 W/m² | - |
| 1787770176 | 32.22° C | 70% | 1015.3 hPa | 0 mm | - | 863 W/m² | - |
| 1787769876 | 32.22° C | 71% | 1015.4 hPa | 0 mm | - | 900 W/m² | - |
| 1787769578 | 32.22° C | 73% | 1015.6 hPa | 0 mm | - | 944 W/m² | - |
| 1787769276 | 32.22° C | 72% | 1015.7 hPa | 0 mm | - | 896 W/m² | - |
| 1787768977 | 32.22° C | 74% | 1015.6 hPa | 0 mm | - | 930 W/m² | - |
| 1787768677 | 32.22° C | 71% | 1015.7 hPa | 0 mm | - | 877 W/m² | - |
| 1787768377 | 32.22° C | 67% | 1015.8 hPa | 0 mm | - | 874 W/m² | - |
| 1787768080 | 32.22° C | 69% | 1015.9 hPa | 0 mm | - | 877 W/m² | - |
| 1787767777 | 32.22° C | 67% | 1015.9 hPa | 0 mm | - | 879 W/m² | - |
| 1787767475 | 32.22° C | 69% | 1015.8 hPa | 0 mm | - | 881 W/m² | - |
| 1787767176 | 32.22° C | 67% | 1015.9 hPa | 0 mm | - | 882 W/m² | - |
| 1787766877 | 32.22° C | 73% | 1015.8 hPa | 0 mm | - | 884 W/m² | - |
| 1787766576 | 32.22° C | 68% | 1015.9 hPa | 0 mm | - | 881 W/m² | - |
| 1787766275 | 32.78° C | 67% | 1015.9 hPa | 0 mm | - | 884 W/m² | - |
| 1787765976 | 32.78° C | 69% | 1016 hPa | 0 mm | - | 886 W/m² | - |
| 1787765676 | 32.22° C | 66% | 1016.2 hPa | 0 mm | - | 884 W/m² | - |
| 1787765375 | 32.78° C | 68% | 1016.1 hPa | 0 mm | - | 877 W/m² | - |
| 1787765077 | 32.22° C | 67% | 1016.3 hPa | 0 mm | - | 863 W/m² | - |
| 1787764776 | 32.22° C | 73% | 1016.5 hPa | 0 mm | - | 847 W/m² | - |
| 1787764476 | 32.22° C | 68% | 1016.6 hPa | 0 mm | - | 853 W/m² | - |
| 1787764177 | 32.22° C | 66% | 1016.5 hPa | 0 mm | - | 863 W/m² | - |
* Rain latest hour (hover to see other rain measurements)
** Current wind speed in m/s (hover to see current wind gust speed)